Showing default

FLTSATCOM 7 (USA 20), 17181

Orbit data source: Space-Track

FLTSATCOM 7 (USA 20), 17181 is an American payload satellite in GEO that was launched on Fri, 05 Dec 1986 UTC via an ATLAS G CENTAUR launch vehicle from the Air Force Eastern Test Range (AFETR). Payload-class satellites include a variety of spacecraft equipped with specific instruments for various scientific and technological missions. These include communications satellites like Starlink; space stations such as the ISS; scientific satellites like the Hubble; Earth observation satellites from companies like Planet Labs, Umbra, and HawkEye 360; GPS; miniature CubeSats for education and research; and military/defense satellites.

Not visible in the next 10 days
Identifier
17181, 1986-096A
Orbit
GEO
Country
Flag of USUS
Related business
Manufacturer
TRW
Mission
Non-operational Defense Communications
Bus & Motor
FLTSATCOM, STAR 37FM
Mass
1,928 kg wet, 822 kg dry
Launch date (UTC)
1986-12-05 (39 years ago)
Launch vehicle
ATLAS G CENTAUR
Launch site
Air Force Eastern Test Range (AFETR)
Object type
Payload
Rocket body
Debris
Shape & HBR
Hex Cyl + 2 Pan, 6.6 m
Radar Cross Section
11.308 m², Large (>1 m²)

Expand to show TLE details & history
Last TLE update: 2 days ago

TLE from 2 days ago
0 FLTSATCOM 7 (USA 20)
1 17181U 86096A   26069.90739278 -.00000060  00000-0  00000+0 0  9991
2 17181  12.7801 340.7012 0043584 328.3127 211.8319  0.98928885150992
Epoch: 2026-03-10T21:46Z
TLE epoch observation values (Epoch: 2026-03-10T21:46:38.736Z)
Latitude
0.02514°
Longitude
25.36939°
Altitude
36,325.112 km
Speed
3.05 km/s
True Right ascension
10h 42m 26s
True Declination
0° 01' 30"
Sunlit
Object was in daylight at epoch
Visualization orbit readout
Latitude
Unknown
Longitude
Unknown
Altitude
Unknown
Speed
Unknown
Apparent Right ascension
Unknown
Apparent Declination
Unknown
Sunlit
N/A
Visualization observer readout
Local Sidereal Time
11:59:59
Azimuth
Unknown
Elevation
Unknown
Doppler factor
Unknown
Orbital elements
Apogee altitude
36,353.73 km
Perigee altitude
35,982.862 km
Semi-major axis
42,546.433 km
Eccentricity
0.00436
Inclination
12.7801°
RAAN
340.7012°
Arg. of periapsis
328.3127°
True anomaly
211.5697°
Mean anomaly
211.8319°
Eccentric anomaly
211.70068°
Mean motion
0.24731 °/min
Orbital period
1,455.64 mins
BSTAR
0
Loading maneuver chart data...
Computing Atmospheric mass density...
Loading historical data...
Loading historical data...
Loading historical data...
Loading historical data...
Loading historical data...
Loading historical data...
Loading historical data...
Other satellites on launch #96 in the year 1986 (1986-12-05 UTC)

Documentation

Showing up to 5 results
|